Location: Mariposa
(37.4849°N, 119.9663°W)
Time: 11:10:45
(UTC+00:00)

ARGOS - Pass Details

Date: 03 August 2024
Orbit: 818 x 834 km, 98.4° (Epoch: 10 September)

Event Time Altitude Azimuth Distance (km) Brightness Sun altitude
Rises 12:31:18 0° 17° (NNE) 3,376 7.1 -7.1°
Reaches altitude 10° 12:33:43 10° 21° (NNE) 2,436 6.4 -6.7°
Maximum altitude 12:39:02 58° 101° (E) 958 3.9 -5.7°
Drops below altitude 10° 12:44:17 10° 180° (S) 2,410 5.3 -4.8°
Sets 12:46:39 0° 184° (S) 3,336 6.0 -4.4°
